Regional Weather Roundup
Issued by NWS

Home | Current Version | Previous Version | Text Only | Print | Product List | Glossary On
Versions: 1 2 3 4 5 6 7 8 9 10 11 12 13 14 15 16 17 18 19 20 21 22 23 24 25 26 27 28 29 30 31 32 33 34 35 36 37 38 39 40 41 42 43 44 45 46 47 48 49 50
000
ASUS44 KLIX 252214
RWRLA
LOUISIANA WEATHER ROUNDUP
NATIONAL WEATHER SERVICE NEW ORLEANS LA
500 PM CDT THU MAY 25 2017

NOTE: "FAIR" INDICATES FEW OR NO CLOUDS BELOW 12,000 FEET WITH NO
      SIGNIFICANT WEATHER AND/OR OBSTRUCTIONS TO VISIBILITY.
      SKY/WX - SKY CONDITION AND SIGNIFICANT WEATHER.
      TMP - AIR TEMPERATURE.    DP   - DEWPOINT TEMPERATURE.
      RH  - RELATIVE HUMIDITY.  PRES - PRESSURE.
      HX  - HEAT INDEX.         WCI  - WIND CHILL INDEX.

*  THESE STATIONS ARE NOT NWS OR FAA STATIONS AND ARE NOT UNDER
   NWS QUALITY CONTROL.

LAZ040-048-061>063-065-066-069-252300-
SOUTHEAST LOUISIANA

CITY           SKY/WX    TMP DP  RH WIND       PRES   REMARKS
N.O. INTL ARPT MOSUNNY   83  57  41 SW8       29.86S
N.O. LAKEFRONT SUNNY     82  57  42 N5        29.87S
N.O. DOWNTOWN*   N/A     85  56  37 S8          N/A
RESERVE*       FAIR      85  59  41 SW7       29.85F
SLIDELL        SUNNY     81  55  40 SW5       29.85F
BATON ROUGE    MOSUNNY   84  62  47 S13       29.83F
BOOTHVILLE     SUNNY     78  55  44 SW8       29.89S
BELLE CHASSE   SUNNY     81  58  45 SW6       29.86S
BOGALUSA*      FAIR      83  53  34 W5        29.86F
GALLIANO*      CLEAR     82  53  37 S12       29.87F
NEW ROADS*     MOCLDY    83  64  52 SW8       29.83S
GONZALES*      FAIR      82  63  51 SW6       29.84S
HAMMOND*       SUNNY     84  48  28 W8        29.84F
HOUMA*         MOSUNNY   81  61  50 SW5       29.86F
PORT FOURCHON* CLEAR     79  52  38 SW8       29.88F

$$

LAZ041-044-053-054-252300-
SOUTHWEST LOUISIANA

CITY           SKY/WX    TMP DP  RH WIND       PRES   REMARKS
LAKE CHARLES   SUNNY     82  63  52 S12G21    29.82F
LAFAYETTE      SUNNY     82  61  48 SW13G21   29.84S
PATTERSON      SUNNY     80  65  59 SW9       29.87S
SALT POINT       N/A     80  63  55 SW7       29.85F
NEW IBERIA     SUNNY     82  62  50 S14       29.85S
CHENAULT AIRPK SUNNY     82  63  51 S13       29.83F

$$

LAZ027-028-252300-
CENTRAL LOUISIANA

CITY           SKY/WX    TMP DP  RH WIND       PRES   REMARKS
FORT POLK      SUNNY     84  63  48 S17       29.78F
ALEXANDRIA INT MOSUNNY   85  64  49 S14       29.77F
ALEXANDRIA     SUNNY     85  65  51 SW9G21    29.79F

$$

LAZ001-002-252300-
NORTHWEST LOUISIANA

CITY           SKY/WX    TMP DP  RH WIND       PRES   REMARKS
SHREVEPORT     MOSUNNY   87  62  43 S10G20    29.73F
BARKSDALE AFB  SUNNY     88  61  40 S14       29.73F
DTN SHREVEPORT SUNNY     87  61  41 S14       29.73F

$$

LAZ014-016-252300-
NORTHEAST LOUISIANA

CITY           SKY/WX    TMP DP  RH WIND       PRES   REMARKS
MONROE         SUNNY     84  60  44 S10       29.79F
TALLULAH       SUNNY     78  57  48 VRB5      29.82S

$$




USA.gov is the U.S. government's official web portal to all federal, state and local government web resources and services.